Regional Weather Roundup
Issued by NWS

Home | Current Version | Previous Version | Graphics & Text | Print | Product List | Glossary On
Versions: 1 2 3 4 5 6 7 8 9 10 11 12 13 14 15 16 17 18 19 20 21 22 23 24 25 26 27
000
ASUS45 KBOU 070507
RWRCO

WEATHER ROUNDUP FOR COLORADO
NATIONAL WEATHER SERVICE DENVER/BOULDER CO
1000 PM MST TUE DEC 06 2016

NOTE: "FAIR" INDICATES FEW OR NO CLOUDS BELOW 12000 FEET WITH NO
SIGNIFICANT WEATHER AND/OR OBSTRUCTIONS TO VISIBILITY.

COZ001>005-013-030-031-070600-
...NORTHWEST COLORADO...

CITY           SKY/WX    TMP DP  RH WIND       PRES   REMARKS
CRAIG          LGT SNOW  18  14  84 W7        29.80S FOG     WCI   9
HAYDEN         CLOUDY    18  10  73 SW6       29.76R WCI   9
MEEKER         LGT SNOW  19  16  88 NW3       29.78S FOG
MOUNT WERNER   NOT AVBL
STEAMBOAT SPGS CLOUDY    17  15  91 SW6       29.75R VSB 3/4 WCI   8
WALDEN           N/A     10   5  79 NW5       29.70R WCI   2
$$

COZ006>008-011-070600-
...WEST CENTRAL VALLEYS...

CITY           SKY/WX    TMP DP  RH WIND       PRES   REMARKS
GRAND JUNCTION LGT SNOW  27  23  85 VRB3      29.87R FOG
MONTROSE       CLOUDY    26  15  63 NW23G29   29.79R WCI  11
EAGLE          LGT SNOW  21  18  88 W8        29.75R FOG     WCI  11
RIFLE          FLURRIES  26  17  68 W14       29.81R WCI  14
DELTA          CLOUDY    34  22  61 W12G23    29.75R WCI  25
NUCLA          MOCLDY    32  12  43 NW15G26   29.79R WCI  22
$$

COZ017>023-064>068-070600-
...SOUTHWEST COLORADO...

CITY           SKY/WX    TMP DP  RH WIND       PRES   REMARKS
DURANGO        MOCLDY    30  14  51 SW6       29.75R WCI  24
CORTEZ         FAIR      39  20  46 SW21G30   29.77R
PAGOSA SPRINGS FAIR      32  14  47 SW8       29.75S WCI  25
TELLURIDE      CLOUDY    28  13  52 W13G23    29.74S WCI  18
WOLF CREEK PAS LGT SNOW  12  10  92 SW24G38   29.69R WCI  -8
$$

COZ009-010-012-014-032>034-037-058>063-070600-
...CENTRAL COLORADO...

CITY           SKY/WX    TMP DP  RH WIND       PRES   REMARKS
ASPEN          HVY SNOW  20  18  92 N5        29.67R VSB 1/4 WCI  13
BUENA VISTA    CLOUDY    14   9  81 S6        29.65R WCI   5
COPPER MTN     CLOUDY    12   5  73 MISG      29.54S
BERTHOUD PASS  LGT SNOW   3  -9  55 NW17G25   29.51F VSB 3/4 WCI -17
COTTONWOOD PAS LGT SNOW  18  12  79 W6        29.58R WCI   9
GUNNISON       FAIR      32  12  43 W17G31    29.63S WCI  21
KREMMLING      FLURRIES  23  16  74 NW6       29.70R WCI  16
LEADVILLE      SNOW      15  13  91 NW14      29.57R VSB 1/4 WCI   0
MONARCH PASS   CLOUDY    12   9  85 W48G62    29.64R VSB 3/4 WCI -13
SALIDA         CLOUDY    15  10  78 SE15G26   29.74S WCI   0
SUNLIGHT       HVY SNOW   7   3  85 W13G23    29.67R VSB 1/4 WCI  -9
WILKERSON PASS LGT SNOW   9   5  85 SW7       29.59S WCI  -3
$$

COZ069>075-070600-
...SAN LUIS VALLEY/SANGRE DE CRISTO MOUNTAINS...

CITY           SKY/WX    TMP DP  RH WIND       PRES   REMARKS
ALAMOSA        CLOUDY    28  20  71 SW22G29   29.69S WCI  14
LA VETA PASS   CLOUDY    21  16  79 NE22G44   29.64F WCI   5
SAGUACHE       MOCLDY    19  16  86 E5        29.66F WCI  13
$$

COZ035-036-038>040-070600-
...NORTHERN COLORADO FRONT RANGE...

CITY           SKY/WX    TMP DP  RH WIND       PRES   REMARKS
DENVER INTL AP LGT SNOW  18  11  74 SE14      29.84S WCI   4
DMNS CITY PARK   N/A     18  15  87 E7G17     29.84F WCI   9
AURORA         LGT SNOW  16  12  86 SE13      29.82F FOG     WCI   2
FRONT RANGE AP NOT AVBL
ERIE MUNI ARPT LGT SNOW  20  17  86 E6        29.86F WCI  12
BOULDER MUN AP LGT SNOW  19  18  93 N3        29.87R
CENTENNIAL     SNOW      16  13  88 SE7       29.81S VSB 1/2 WCI   6
BROOMFIELD     LGT SNOW  18  16  93 NE3       29.84S
FORT COLLINS   FAIR      19  18  93 S7        29.90R WCI  10
LONGMONT       LGT SNOW  22  18  86 CALM      29.91R
$$

COZ041-046-047-076>085-087-088-070600-
...PIKES PEAK/PALMER DIVIDE AND SOUTHERN FOOTHILLS...

CITY           SKY/WX    TMP DP  RH WIND       PRES   REMARKS
COLO. SPRINGS  FAIR      10   2  69 N9        29.80S WCI  -3
A. F. ACADEMY  FAIR      10   7  85 NW3       29.77F
SCHRIEVER AFB  NOT AVBL
ELLICOTT       FAIR     N/A N/A N/A NE9         N/A
FALCON         MOCLDY    11   3  71 N7        29.78R WCI   0
FORT CARSON    FAIR      11   6  79 NW8       29.78F WCI   0
LIMON          CLOUDY    19   1  45 E12       29.86S WCI   7
MONUMENT HILL  CLOUDY    12   5  73 SE6       29.78R WCI   3
TRINIDAD       NOT AVBL
$$

COZ042>045-048>051-090-091-070600-
...NORTHEAST COLORADO...

CITY           SKY/WX    TMP DP  RH WIND       PRES   REMARKS
GREELEY ARPT   FLURRIES  22  14  71 E8        29.90F WCI  12
AKRON          CLOUDY    19  13  77 NE12      29.94R WCI   7
BURLINGTON     CLOUDY    25  -1  32 E9        29.94S WCI  15
WRAY           NOT AVBL
STERLING       CLOUDY    25  12  58 NE9       29.98R WCI  15
HOLYOKE        LGT SNOW  25  19  80 SE7       30.03S WCI  17
FORT MORGAN    LGT SNOW  21  14  75 E9        29.93F WCI  10
$$

COZ086-089-092>099-070600-
...SOUTHEAST COLORADO...

CITY           SKY/WX    TMP DP  RH WIND       PRES   REMARKS
PUEBLO         FAIR      16   0  49 N9        29.82S WCI   4
LA JUNTA       FAIR      18   2  49 SE5       29.82R WCI  11
LAMAR          FAIR      22   2  42 SE14      29.89R WCI   9
SPRINGFIELD      N/A     17   4  56 S15       29.85F WCI   2
$$




USA.gov is the U.S. government's official web portal to all federal, state and local government web resources and services.